OSCAR 7 (AO-7)

Last updated on Mon Sep 07 2026 00:03:13 GMT+0000 (Coordinated Universal Time)

1 07530U 74089B 26249.62928979 -.00000035 00000+0 71293-4 0 9992 2 07530 101.9922 263.7276 0012115 337.5402 141.8267 12.53699428370725
UTC large
Height (km)
Speed (km/s)
/
Latitude / Longitude
Inclination (degrees)
Orbital Period (minutes)
Azimuth
Elevation
Range (km)
Doppler Factor

Next 0 passes for location: London (51.5072 / 0.1276)

No passes found over London.
OSCAR 7 (AO-7)